Home   Weather   Rehovot   Past weeks

Flag for Israel Past Weather in Rehovot, Israel — Yesterday and Last 2 Weeks

Now
84 °F

Sunny.


Feels Like: 86 °F
Forecast: 75 / 85 °F
Wind: 14 mph from Northwest

Location: Ben Gurion International Airport

Current Time: Sep 29, 2016 at 1:18:02 PM

Latest Report: Sep 29, 2016 at 12:50 PM


Visibility: 10 mi

Pressure: 30.01 "Hg

Humidity: 51%

Dew Point: 64 °F

Location of RehovotLocation

Past Weather in Rehovot — Graph

°F

Rehovot Temperature Yesterday

Maximum temperature yesterday: 82 °F (at 10:50 AM)
Minimum temperature yesterday: 70 °F (at 5:20 AM)
Average temperature yesterday: 77 °F

High & Low Weather Summary for the Past Weeks

 TemperatureHumidityPressure
High90 °F (Sep 18, 12:20 PM)83% (Sep 18, 6:20 AM)30.07 "Hg (Sep 18, 6:20 AM)
Low68 °F (Sep 25, 6:50 AM)24% (Sep 25, 11:50 AM)29.74 "Hg (Sep 25, 1:20 PM)
Average80 °F60%29.90 "Hg
* Reported Sep 14 12:20 PM — Sep 29 12:20 PM, Rehovot, Weather by CustomWeather, © 2016

Note: Actual official high and low records may vary slightly from our data, if they occured in-between our weather recording intervals... More about our weather records

Advertising

Rehovot Weather History for the Previous 24 Hours

Scroll right to see more
 ConditionsComfort  
Time TempWeatherWind HumidityBarometerVisibility
12:20 PM
Thu, Sep 29
84 °FPassing clouds.10 mph51%30.01 "HgN/A
11:50 AM84 °FPassing clouds.9 mph51%30.04 "HgN/A
11:20 AM82 °FSunny.10 mph51%30.04 "Hg10 mi
10:50 AM82 °FSunny.8 mph51%30.04 "Hg10 mi
10:20 AM81 °FSunny.7 mph58%30.07 "Hg10 mi
9:50 AM81 °FSunny.8 mph58%30.07 "Hg10 mi
9:20 AM79 °FSunny.7 mph61%30.07 "Hg10 mi
8:50 AM79 °FSunny.2 mph61%30.07 "Hg10 mi
7:50 AM73 °FPassing clouds.5 mph69%30.07 "HgN/A
7:20 AM72 °FScattered clouds.3 mph73%30.07 "HgN/A
6:50 AM70 °FScattered clouds.2 mph78%30.07 "HgN/A
6:20 AM70 °FPassing clouds.2 mph78%30.07 "HgN/A
5:50 AM70 °FPassing clouds.2 mph78%30.07 "HgN/A
5:20 AM77 °FPassing clouds.8 mph65%30.07 "HgN/A
4:50 AM68 °FPassing clouds.1 mph78%30.07 "HgN/A
4:20 AM72 °FPassing clouds.2 mph73%30.07 "HgN/A
3:50 AM72 °FPassing clouds.2 mph73%30.07 "HgN/A
3:20 AM72 °FPassing clouds.3 mph73%30.07 "HgN/A
2:50 AM72 °FPassing clouds.5 mph73%30.07 "HgN/A
2:20 AM72 °FPassing clouds.6 mph73%30.07 "HgN/A
1:50 AM72 °FPassing clouds.3 mph73%30.07 "HgN/A
1:20 AM72 °FPassing clouds.3 mph73%30.07 "HgN/A
12:50 AM73 °FPassing clouds.5 mph69%30.07 "HgN/A
12:20 AM73 °FClear.2 mph69%30.07 "Hg10 mi
11:50 PM
Wed, Sep 28
72 °FPassing clouds.2 mph73%30.07 "HgN/A
11:20 PM73 °FPassing clouds.3 mph69%30.07 "HgN/A
10:50 PM75 °FPassing clouds.3 mph69%30.07 "HgN/A
10:20 PM75 °FPassing clouds.2 mph69%30.07 "HgN/A
9:50 PM75 °FPassing clouds.3 mph69%30.07 "HgN/A
9:20 PM77 °FPassing clouds.3 mph65%30.07 "HgN/A
8:50 PM77 °FPassing clouds.5 mph65%30.07 "HgN/A
8:20 PM77 °FPassing clouds.6 mph65%30.07 "HgN/A
7:50 PM77 °FPassing clouds.7 mph65%30.04 "HgN/A
7:20 PM77 °FPassing clouds.8 mph65%30.04 "HgN/A
6:50 PM79 °FPassing clouds.10 mph61%30.04 "HgN/A
6:20 PM79 °FPassing clouds.12 mph61%30.04 "HgN/A
5:50 PM79 °FPassing clouds.13 mph61%30.04 "HgN/A
5:20 PM81 °FPassing clouds.13 mph54%30.04 "HgN/A
4:50 PM81 °FPassing clouds.14 mph58%30.01 "HgN/A
4:20 PM81 °FScattered clouds.14 mph58%30.01 "HgN/A
3:50 PM82 °FScattered clouds.15 mph55%30.01 "HgN/A
3:20 PM82 °FScattered clouds.14 mph55%30.04 "HgN/A
2:50 PM82 °FScattered clouds.14 mph55%30.04 "HgN/A
2:20 PM82 °FScattered clouds.15 mph55%30.04 "HgN/A
1:50 PM82 °FScattered clouds.15 mph55%30.04 "HgN/A
1:20 PM82 °FScattered clouds.14 mph55%30.04 "HgN/A
Weather by CustomWeather, © 2016

See weather overviewHow to use our weather pages